Location: Devore Heights
(34.2372°N, 117.4156°W)
Time: 01:41:10
(UTC+00:00)

SR - Pass Details

Date: 15 September 2024
Orbit: 578 x 855 km, 66.7° (Epoch: 02 October)

Event Time Altitude Azimuth Distance (km) Brightness Sun altitude
Rises 21:36:26 0° 246° (WSW) 2,819 ? 49.0°
Reaches altitude 10° 21:39:26 10° 268° (W) 1,899 ? 48.5°
Maximum altitude 21:42:05 16° 307° (NW) 1,537 ? 48.1°
Drops below altitude 10° 21:44:44 10° 346° (NNW) 1,894 ? 47.7°
Sets 21:47:44 0° 8° (N) 2,807 ? 47.3°
